Location: ????????
(55.4000°N, 39.1167°E)
Time: 01:28:43
(UTC+00:00)

CZ-2C R/B - Pass Details

Date: 19 May 2025
Orbit: 782 x 867 km, 98.4° (Epoch: 13 June)

Event Time Altitude Azimuth Distance (km) Brightness Sun altitude
Exits shadow 22:36:29 17° 180° (S) 1,916 4.0 -12.9°
Maximum altitude 22:40:29 62° 258° (WSW) 888 2.7 -12.7°
Drops below altitude 10° 22:45:37 10° 339° (NNW) 2,353 5.8 -12.5°
Sets 22:47:59 0° 343° (NNW) 3,288 6.7 -12.3°
